Time,TemperatureF,DewpointF,PressureIn,WindDirection,WindDirectionDegrees,WindSpeedMPH,WindSpeedGustMPH,Humidity,HourlyPrecipIn,Conditions,Clouds,dailyrainin,SoftwareType,DateUTC
2013-02-18 00:02:00,54.7,44.0,29.62,WSW,248,5.6,6.3,67,0.00,,SCT060,0.00,VWS V14.01,2013-02-18 06:02:00,
2013-02-18 00:07:00,54.7,44.0,29.62,WSW,248,3.4,3.4,67,0.00,,SCT060,0.00,VWS V14.01,2013-02-18 06:07:00,
2013-02-18 00:13:00,54.5,44.2,29.62,WSW,248,4.9,4.9,68,0.00,,SCT060,0.00,VWS V14.01,2013-02-18 06:13:00,
2013-02-18 00:19:00,54.5,44.5,29.62,WNW,292,3.1,6.3,69,0.00,,SCT060,0.00,VWS V14.01,2013-02-18 06:19:00,
2013-02-18 00:24:00,54.5,44.9,29.65,WSW,248,5.4,6.5,70,0.00,,SCT060,0.00,VWS V14.01,2013-02-18 06:24:00,
2013-02-18 00:29:00,54.5,44.9,29.65,WSW,248,4.9,6.3,70,0.00,,SCT060,0.00,VWS V14.01,2013-02-18 06:29:00,
2013-02-18 00:34:00,54.5,45.3,29.65,SSW,202,5.6,6.5,71,0.00,,SCT060,0.00,VWS V14.01,2013-02-18 06:34:00,
2013-02-18 00:40:00,54.5,45.3,29.65,WSW,248,5.4,6.0,71,0.00,,SCT060,0.00,VWS V14.01,2013-02-18 06:40:00,
2013-02-18 00:46:00,54.5,45.7,29.65,West,270,5.4,6.7,72,0.00,,SCT060,0.00,VWS V14.01,2013-02-18 06:46:00,
2013-02-18 00:51:00,54.5,45.7,29.65,West,270,5.6,6.3,72,0.00,,SCT060,0.00,VWS V14.01,2013-02-18 06:51:00,
2013-02-18 00:56:00,54.7,45.8,29.65,West,270,5.6,5.6,72,0.00,,SCT060,0.00,VWS V14.01,2013-02-18 06:56:00,
2013-02-18 01:03:00,54.7,45.8,29.65,West,270,3.4,4.7,72,0.00,,SCT060,0.00,VWS V14.01,2013-02-18 07:03:00,
2013-02-18 01:08:00,54.7,46.2,29.62,WSW,248,6.5,7.4,73,0.00,,SCT060,0.00,VWS V14.01,2013-02-18 07:08:00,
2013-02-18 01:13:00,54.9,46.4,29.62,SW,225,4.0,6.5,73,0.00,,SCT060,0.00,VWS V14.01,2013-02-18 07:13:00,
2013-02-18 01:18:00,55.0,46.5,29.62,WSW,248,5.8,6.0,73,0.00,,SCT060,0.00,VWS V14.01,2013-02-18 07:18:00,
2013-02-18 01:23:00,55.2,47.1,29.62,West,270,6.5,8.7,74,0.00,,SCT060,0.00,VWS V14.01,2013-02-18 07:23:00,
2013-02-18 01:29:00,55.2,47.1,29.62,West,270,7.6,7.6,74,0.00,,SCT060,0.00,VWS V14.01,2013-02-18 07:29:00,
2013-02-18 01:34:00,55.4,46.9,29.62,WSW,248,4.9,7.4,73,0.00,,SCT060,0.00,VWS V14.01,2013-02-18 07:34:00,
2013-02-18 01:40:00,55.6,47.1,29.62,WSW,248,7.8,7.8,73,0.00,,SCT060,0.00,VWS V14.01,2013-02-18 07:40:00,
2013-02-18 01:46:00,55.6,47.1,29.62,WSW,248,4.9,4.9,73,0.00,,SCT060,0.00,VWS V14.01,2013-02-18 07:46:00,
2013-02-18 01:52:00,55.6,47.1,29.62,WSW,248,3.6,5.4,73,0.00,,SCT060,0.00,VWS V14.01,2013-02-18 07:52:00,
2013-02-18 01:58:00,55.6,47.4,29.62,WSW,248,3.1,4.0,74,0.00,,SCT060,0.00,VWS V14.01,2013-02-18 07:58:00,
2013-02-18 02:04:00,55.8,47.6,29.62,WSW,248,5.8,7.6,74,0.00,,SCT060,0.00,VWS V14.01,2013-02-18 08:04:00,
2013-02-18 02:09:00,55.8,47.6,29.62,WSW,248,4.9,4.9,74,0.00,,SCT060,0.00,VWS V14.01,2013-02-18 08:09:00,
2013-02-18 02:15:00,55.8,47.6,29.62,WSW,248,4.7,4.9,74,0.00,,SCT060,0.00,VWS V14.01,2013-02-18 08:15:00,
2013-02-18 02:20:00,55.8,47.6,29.62,WSW,248,4.3,6.7,74,0.00,,SCT060,0.00,VWS V14.01,2013-02-18 08:20:00,
2013-02-18 02:25:00,55.8,47.6,29.59,WNW,292,6.5,6.5,74,0.00,,SCT060,0.00,VWS V14.01,2013-02-18 08:25:00,
2013-02-18 02:30:00,55.8,47.6,29.59,WSW,248,4.3,7.4,74,0.00,,SCT060,0.00,VWS V14.01,2013-02-18 08:30:00,
2013-02-18 02:36:00,55.8,47.6,29.59,WSW,248,4.0,5.4,74,0.00,,SCT060,0.00,VWS V14.01,2013-02-18 08:36:00,
2013-02-18 02:42:00,55.8,48.0,29.59,WSW,248,3.6,5.6,75,0.00,,SCT060,0.00,VWS V14.01,2013-02-18 08:42:00,
2013-02-18 02:47:00,55.8,48.0,29.59,WSW,248,5.4,5.6,75,0.00,,SCT060,0.00,VWS V14.01,2013-02-18 08:47:00,
2013-02-18 02:53:00,55.8,48.3,29.59,WSW,248,6.0,6.0,76,0.00,,SCT060,0.00,VWS V14.01,2013-02-18 08:53:00,
2013-02-18 02:58:00,55.9,48.5,29.59,WNW,292,6.0,6.0,76,0.00,,SCT060,0.00,VWS V14.01,2013-02-18 08:58:00,
2013-02-18 03:03:00,55.9,48.5,29.59,WSW,248,4.9,7.4,76,0.00,,SCT060,0.00,VWS V14.01,2013-02-18 09:03:00,
2013-02-18 03:08:00,55.9,48.5,29.56,WNW,292,6.0,6.0,76,0.00,,SCT060,0.00,VWS V14.01,2013-02-18 09:08:00,
2013-02-18 03:14:00,56.1,49.0,29.56,WSW,248,6.0,8.1,77,0.00,,SCT060,0.00,VWS V14.01,2013-02-18 09:14:00,
2013-02-18 03:20:00,56.3,49.2,29.56,WSW,248,5.8,6.3,77,0.00,,SCT060,0.00,VWS V14.01,2013-02-18 09:20:00,
2013-02-18 03:25:00,56.3,49.2,29.56,WSW,248,4.3,6.0,77,0.00,,SCT060,0.00,VWS V14.01,2013-02-18 09:25:00,
2013-02-18 03:30:00,56.3,49.2,29.56,WSW,248,5.6,6.5,77,0.00,,SCT060,0.00,VWS V14.01,2013-02-18 09:30:00,
2013-02-18 03:35:00,56.5,49.4,29.56,West,270,5.4,6.3,77,0.00,,SCT060,0.00,VWS V14.01,2013-02-18 09:35:00,
2013-02-18 03:40:00,56.7,49.5,29.56,WNW,292,5.4,7.8,77,0.00,,SCT060,0.00,VWS V14.01,2013-02-18 09:40:00,
2013-02-18 03:46:00,56.8,49.7,29.56,WSW,248,7.4,7.4,77,0.00,,SCT060,0.00,VWS V14.01,2013-02-18 09:46:00,
2013-02-18 03:52:00,57.0,49.5,29.56,WNW,292,8.7,8.7,76,0.00,,SCT060,0.00,VWS V14.01,2013-02-18 09:52:00,
2013-02-18 03:57:00,57.0,49.5,29.56,WSW,248,6.9,8.5,76,0.00,,SCT060,0.00,VWS V14.01,2013-02-18 09:57:00,
2013-02-18 04:03:00,57.2,49.7,29.56,WNW,292,5.4,7.8,76,0.00,,OVC065,0.00,VWS V14.01,2013-02-18 10:03:00,
2013-02-18 04:08:00,57.2,49.7,29.56,WSW,248,4.3,8.7,76,0.00,,OVC065,0.00,VWS V14.01,2013-02-18 10:08:00,
2013-02-18 04:14:00,57.4,49.5,29.56,West,270,8.5,8.5,75,0.00,,OVC065,0.00,VWS V14.01,2013-02-18 10:14:00,
2013-02-18 04:20:00,57.4,49.5,29.56,WSW,248,4.0,6.0,75,0.00,,OVC065,0.00,VWS V14.01,2013-02-18 10:20:00,
2013-02-18 04:25:00,57.6,49.7,29.56,SSW,202,3.6,3.6,75,0.00,,OVC065,0.00,VWS V14.01,2013-02-18 10:25:00,
2013-02-18 04:31:00,57.6,49.7,29.56,WSW,248,5.4,6.0,75,0.00,,OVC065,0.00,VWS V14.01,2013-02-18 10:31:00,
2013-02-18 04:37:00,57.7,49.9,29.56,WNW,292,5.8,8.1,75,0.00,,OVC065,0.00,VWS V14.01,2013-02-18 10:37:00,
2013-02-18 04:42:00,57.7,49.9,29.56,WNW,292,5.8,6.0,75,0.00,,OVC065,0.00,VWS V14.01,2013-02-18 10:42:00,
2013-02-18 04:48:00,57.6,50.1,29.56,WSW,248,7.6,7.6,76,0.00,,OVC065,0.00,VWS V14.01,2013-02-18 10:48:00,
2013-02-18 04:53:00,57.7,50.2,29.56,West,270,6.3,7.6,76,0.00,,OVC065,0.00,VWS V14.01,2013-02-18 10:53:00,
2013-02-18 04:59:00,57.7,50.2,29.56,WSW,248,4.0,5.4,76,0.00,,OVC065,0.00,VWS V14.01,2013-02-18 10:59:00,
2013-02-18 05:05:00,57.7,50.6,29.56,WNW,292,7.6,7.6,77,0.00,,OVC065,0.00,VWS V14.01,2013-02-18 11:05:00,
2013-02-18 05:11:00,57.7,50.6,29.56,WSW,248,6.3,6.3,77,0.00,,OVC065,0.00,VWS V14.01,2013-02-18 11:11:00,
2013-02-18 05:18:00,57.7,50.6,29.56,WNW,292,6.7,6.7,77,0.00,,OVC065,0.00,VWS V14.01,2013-02-18 11:18:00,
2013-02-18 05:23:00,57.7,50.9,29.53,WSW,248,5.8,6.5,78,0.00,,OVC065,0.00,VWS V14.01,2013-02-18 11:23:00,
2013-02-18 05:28:00,57.7,50.9,29.53,WNW,292,6.0,7.6,78,0.00,,OVC065,0.00,VWS V14.01,2013-02-18 11:28:00,
2013-02-18 05:33:00,57.7,50.9,29.53,WSW,248,5.6,8.1,78,0.00,,OVC065,0.00,VWS V14.01,2013-02-18 11:33:00,
2013-02-18 05:38:00,57.7,50.9,29.53,West,270,6.0,9.8,78,0.00,,OVC065,0.00,VWS V14.01,2013-02-18 11:38:00,
2013-02-18 05:43:00,57.9,51.5,29.53,West,270,6.3,8.7,79,0.00,,OVC065,0.00,VWS V14.01,2013-02-18 11:43:00,
2013-02-18 05:48:00,57.9,51.5,29.53,WSW,248,7.6,7.6,79,0.00,,OVC065,0.00,VWS V14.01,2013-02-18 11:48:00,
2013-02-18 05:54:00,57.9,51.5,29.50,WSW,248,4.3,4.9,79,0.00,,OVC065,0.00,VWS V14.01,2013-02-18 11:54:00,
2013-02-18 05:59:00,57.9,51.5,29.50,WNW,292,5.4,6.0,79,0.00,,OVC065,0.00,VWS V14.01,2013-02-18 11:59:00,
2013-02-18 06:05:00,57.9,51.5,29.50,WSW,248,6.3,6.3,79,0.00,,OVC065,0.00,VWS V14.01,2013-02-18 12:05:00,
2013-02-18 06:11:00,58.1,51.6,29.50,WSW,248,7.4,10.7,79,0.00,,OVC065,0.00,VWS V14.01,2013-02-18 12:11:00,
2013-02-18 06:16:00,58.1,51.6,29.50,WNW,292,7.2,8.1,79,0.00,,OVC065,0.00,VWS V14.01,2013-02-18 12:16:00,
2013-02-18 06:22:00,58.1,51.6,29.50,WSW,248,6.0,6.3,79,0.00,,OVC065,0.00,VWS V14.01,2013-02-18 12:22:00,
2013-02-18 06:27:00,58.3,51.8,29.50,WSW,248,4.0,6.5,79,0.00,,OVC065,0.00,VWS V14.01,2013-02-18 12:27:00,
2013-02-18 06:32:00,58.3,51.8,29.50,WSW,248,3.1,6.0,79,0.00,,OVC065,0.00,VWS V14.01,2013-02-18 12:32:00,
2013-02-18 06:37:00,58.3,52.2,29.50,WSW,248,5.4,6.0,80,0.00,,OVC065,0.00,VWS V14.01,2013-02-18 12:37:00,
2013-02-18 06:43:00,58.3,52.2,29.50,West,270,3.8,7.2,80,0.00,,OVC065,0.00,VWS V14.01,2013-02-18 12:43:00,
2013-02-18 06:48:00,58.3,52.2,29.50,West,270,8.1,8.1,80,0.00,,OVC065,0.00,VWS V14.01,2013-02-18 12:48:00,
2013-02-18 06:55:00,58.3,52.2,29.50,WSW,248,4.3,5.8,80,0.00,,OVC065,0.00,VWS V14.01,2013-02-18 12:55:00,
2013-02-18 07:00:00,58.5,52.3,29.50,WSW,248,5.8,6.7,80,0.00,,OVC065,0.00,VWS V14.01,2013-02-18 13:00:00,
2013-02-18 07:05:00,58.5,52.3,29.50,WSW,248,4.9,6.3,80,0.00,,OVC065,0.00,VWS V14.01,2013-02-18 13:05:00,
2013-02-18 07:10:00,58.5,52.3,29.50,West,270,4.9,5.4,80,0.00,,OVC065,0.00,VWS V14.01,2013-02-18 13:10:00,
2013-02-18 07:16:00,58.5,52.7,29.50,WSW,248,3.8,4.9,81,0.00,,OVC065,0.00,VWS V14.01,2013-02-18 13:16:00,
2013-02-18 07:21:00,58.5,52.7,29.50,WNW,292,5.8,9.6,81,0.00,,OVC065,0.00,VWS V14.01,2013-02-18 13:21:00,
2013-02-18 07:27:00,58.6,52.8,29.50,WSW,248,4.0,4.0,81,0.00,,OVC065,0.00,VWS V14.01,2013-02-18 13:27:00,
2013-02-18 07:33:00,58.6,52.8,29.50,WSW,248,6.0,6.0,81,0.00,,OVC065,0.00,VWS V14.01,2013-02-18 13:33:00,
2013-02-18 07:38:00,58.8,53.0,29.50,WSW,248,5.6,6.3,81,0.00,,OVC065,0.00,VWS V14.01,2013-02-18 13:38:00,
2013-02-18 07:44:00,59.0,53.2,29.50,WNW,292,5.6,5.8,81,0.00,,OVC065,0.00,VWS V14.01,2013-02-18 13:44:00,
2013-02-18 07:50:00,59.2,53.0,29.50,WSW,248,4.7,7.2,80,0.00,,OVC065,0.00,VWS V14.01,2013-02-18 13:50:00,
2013-02-18 07:55:00,59.4,53.2,29.50,WNW,292,6.0,8.1,80,0.00,,OVC065,0.00,VWS V14.01,2013-02-18 13:55:00,
2013-02-18 08:00:00,59.5,53.4,29.50,WSW,248,2.7,5.4,80,0.00,,OVC035,0.00,VWS V14.01,2013-02-18 14:00:00,
2013-02-18 08:05:00,59.7,53.5,29.50,West,270,6.0,6.0,80,0.00,,OVC035,0.00,VWS V14.01,2013-02-18 14:05:00,
2013-02-18 08:10:00,59.7,53.5,29.50,NW,315,2.9,2.9,80,0.00,,OVC035,0.00,VWS V14.01,2013-02-18 14:10:00,
2013-02-18 08:16:00,59.7,53.2,29.50,NW,315,2.2,3.6,79,0.00,,OVC035,0.00,VWS V14.01,2013-02-18 14:16:00,
2013-02-18 08:22:00,59.7,53.2,29.53,SW,225,2.2,3.6,79,0.00,,OVC035,0.00,VWS V14.01,2013-02-18 14:22:00,
2013-02-18 08:27:00,59.7,53.5,29.53,NNW,338,2.5,2.7,80,0.00,,OVC035,0.00,VWS V14.01,2013-02-18 14:27:00,
2013-02-18 08:32:00,59.7,53.5,29.53,WSW,248,3.1,4.7,80,0.00,,OVC035,0.00,VWS V14.01,2013-02-18 14:32:00,
2013-02-18 08:38:00,59.7,53.9,29.50,WSW,248,6.5,7.4,81,0.00,,OVC035,0.00,VWS V14.01,2013-02-18 14:38:00,
2013-02-18 08:43:00,59.9,54.1,29.50,WNW,292,4.9,10.1,81,0.00,,OVC035,0.00,VWS V14.01,2013-02-18 14:43:00,
2013-02-18 08:49:00,60.3,54.4,29.50,West,270,4.9,4.9,81,0.00,,OVC035,0.00,VWS V14.01,2013-02-18 14:49:00,
2013-02-18 08:54:00,60.6,54.8,29.50,WSW,248,7.4,8.7,81,0.00,,OVC035,0.00,VWS V14.01,2013-02-18 14:54:00,
2013-02-18 08:59:00,61.0,54.8,29.50,WSW,248,4.7,4.7,80,0.00,,OVC035,0.00,VWS V14.01,2013-02-18 14:59:00,
2013-02-18 09:05:00,61.9,55.0,29.50,WSW,248,6.3,7.6,78,0.00,,OVC035,0.00,VWS V14.01,2013-02-18 15:05:00,
2013-02-18 09:10:00,62.4,55.1,29.50,WSW,248,6.0,8.5,77,0.00,,OVC035,0.00,VWS V14.01,2013-02-18 15:10:00,
2013-02-18 09:15:00,63.3,55.3,29.50,WNW,292,9.0,9.0,75,0.00,,OVC035,0.00,VWS V14.01,2013-02-18 15:15:00,
2013-02-18 09:21:00,63.9,55.0,29.50,WNW,292,11.0,11.0,73,0.00,,OVC035,0.00,VWS V14.01,2013-02-18 15:21:00,
2013-02-18 09:26:00,63.9,55.0,29.50,West,270,6.3,6.3,73,0.00,,OVC035,0.00,VWS V14.01,2013-02-18 15:26:00,
2013-02-18 09:32:00,64.4,55.2,29.50,WSW,248,8.1,10.5,72,0.00,,OVC035,0.00,VWS V14.01,2013-02-18 15:32:00,
2013-02-18 09:37:00,64.4,55.2,29.47,NW,315,10.5,10.5,72,0.00,,OVC035,0.00,VWS V14.01,2013-02-18 15:37:00,
2013-02-18 09:43:00,64.2,55.4,29.47,West,270,8.5,9.8,73,0.00,,OVC035,0.00,VWS V14.01,2013-02-18 15:43:00,
2013-02-18 09:48:00,64.2,55.0,29.47,West,270,8.7,10.5,72,0.00,,OVC035,0.00,VWS V14.01,2013-02-18 15:48:00,
2013-02-18 09:53:00,64.6,55.4,29.47,WNW,292,11.9,11.9,72,0.00,,OVC035,0.00,VWS V14.01,2013-02-18 15:53:00,
2013-02-18 09:59:00,64.6,55.4,29.47,WNW,292,9.0,10.7,72,0.00,,OVC035,0.00,VWS V14.01,2013-02-18 15:59:00,
2013-02-18 10:04:00,64.8,55.5,29.47,WNW,292,5.6,5.6,72,0.00,,OVC035,0.00,VWS V14.01,2013-02-18 16:04:00,
2013-02-18 10:09:00,64.8,55.2,29.53,WNW,292,13.2,13.2,71,0.00,,OVC035,0.00,VWS V14.01,2013-02-18 16:09:00,
2013-02-18 10:15:00,64.9,55.3,29.53,WNW,292,10.1,12.8,71,0.00,,OVC035,0.00,VWS V14.01,2013-02-18 16:15:00,
2013-02-18 10:21:00,64.9,55.7,29.50,WNW,292,8.1,8.7,72,0.00,,OVC035,0.00,VWS V14.01,2013-02-18 16:21:00,
2013-02-18 10:26:00,64.9,55.7,29.50,WNW,292,9.8,10.5,72,0.00,,OVC035,0.00,VWS V14.01,2013-02-18 16:26:00,
2013-02-18 10:31:00,65.1,55.9,29.50,West,270,8.1,8.7,72,0.00,,OVC035,0.00,VWS V14.01,2013-02-18 16:31:00,
2013-02-18 10:36:00,65.3,56.0,29.50,WNW,292,8.5,8.5,72,0.00,,OVC035,0.00,VWS V14.01,2013-02-18 16:36:00,
2013-02-18 10:42:00,66.2,56.1,29.50,WSW,248,4.9,10.3,70,0.00,,OVC035,0.00,VWS V14.01,2013-02-18 16:42:00,
2013-02-18 10:47:00,66.2,56.1,29.50,WNW,292,6.3,7.6,70,0.00,,OVC035,0.00,VWS V14.01,2013-02-18 16:47:00,
2013-02-18 10:53:00,66.7,56.7,29.47,West,270,3.6,8.1,70,0.00,,OVC035,0.00,VWS V14.01,2013-02-18 16:53:00,
2013-02-18 10:58:00,67.5,56.5,29.47,WSW,248,7.6,8.1,68,0.00,,OVC035,0.00,VWS V14.01,2013-02-18 16:58:00,
2013-02-18 11:04:00,67.5,56.5,29.47,WSW,248,6.3,7.8,68,0.00,,OVC035,0.00,VWS V14.01,2013-02-18 17:04:00,
2013-02-18 11:09:00,67.8,56.5,29.47,WNW,292,13.0,13.0,67,0.00,,OVC035,0.00,VWS V14.01,2013-02-18 17:09:00,
2013-02-18 11:15:00,67.6,56.3,29.47,WSW,248,5.6,10.7,67,0.00,,OVC035,0.00,VWS V14.01,2013-02-18 17:15:00,
2013-02-18 11:21:00,68.2,56.4,29.44,West,270,6.5,10.1,66,0.00,,OVC035,0.00,VWS V14.01,2013-02-18 17:21:00,
2013-02-18 11:26:00,68.0,55.8,29.44,WNW,292,9.2,10.1,65,0.00,,OVC035,0.00,VWS V14.01,2013-02-18 17:26:00,
2013-02-18 11:32:00,67.8,56.5,29.44,West,270,9.2,12.1,67,0.00,,OVC035,0.00,VWS V14.01,2013-02-18 17:32:00,
2013-02-18 11:37:00,67.6,56.3,29.44,West,270,8.7,8.7,67,0.00,,OVC035,0.00,VWS V14.01,2013-02-18 17:37:00,
2013-02-18 11:42:00,67.8,56.5,29.44,WNW,292,4.3,8.5,67,0.00,,OVC035,0.00,VWS V14.01,2013-02-18 17:42:00,
2013-02-18 11:47:00,67.6,56.3,29.44,WNW,292,8.5,10.7,67,0.00,,OVC035,0.00,VWS V14.01,2013-02-18 17:47:00,
2013-02-18 11:53:00,67.5,56.5,29.44,WNW,292,7.4,12.1,68,0.00,,OVC035,0.00,VWS V14.01,2013-02-18 17:53:00,
2013-02-18 11:58:00,67.6,56.7,29.44,West,270,4.9,6.5,68,0.00,,OVC035,0.00,VWS V14.01,2013-02-18 17:58:00,
2013-02-18 12:03:00,68.2,57.2,29.44,WNW,292,2.5,3.8,68,0.00,,OVC031,0.00,VWS V14.01,2013-02-18 18:03:00,
2013-02-18 12:09:00,70.0,58.1,29.44,WNW,292,6.9,12.8,66,0.00,,OVC031,0.00,VWS V14.01,2013-02-18 18:09:00,
2013-02-18 12:15:00,71.4,58.6,29.44,WSW,248,9.8,9.8,64,0.00,,OVC031,0.00,VWS V14.01,2013-02-18 18:15:00,
2013-02-18 12:21:00,72.7,58.0,29.41,WNW,292,8.5,11.2,60,0.00,,OVC031,0.00,VWS V14.01,2013-02-18 18:21:00,
2013-02-18 12:26:00,73.6,58.8,29.41,WNW,292,4.3,6.3,60,0.00,,OVC031,0.00,VWS V14.01,2013-02-18 18:26:00,
2013-02-18 12:31:00,73.4,58.2,29.41,WNW,292,8.1,8.1,59,0.00,,OVC031,0.00,VWS V14.01,2013-02-18 18:31:00,
2013-02-18 12:36:00,72.7,57.5,29.38,West,270,7.4,8.7,59,0.00,,OVC031,0.00,VWS V14.01,2013-02-18 18:36:00,
2013-02-18 12:42:00,73.2,58.5,29.38,WSW,248,10.3,10.3,60,0.00,,OVC031,0.00,VWS V14.01,2013-02-18 18:42:00,
2013-02-18 12:47:00,72.1,58.4,29.38,WNW,292,6.0,8.7,62,0.00,,OVC031,0.00,VWS V14.01,2013-02-18 18:47:00,
2013-02-18 12:53:00,71.6,58.8,29.38,WSW,248,7.4,9.6,64,0.00,,OVC031,0.00,VWS V14.01,2013-02-18 18:53:00,
2013-02-18 12:59:00,70.7,59.2,29.38,SW,225,9.8,9.8,67,0.00,,OVC031,0.00,VWS V14.01,2013-02-18 18:59:00,
2013-02-18 13:04:00,70.3,59.3,29.38,WNW,292,12.5,15.2,68,0.00,,OVC031,0.00,VWS V14.01,2013-02-18 19:04:00,
2013-02-18 13:09:00,70.9,59.8,29.38,West,270,6.0,9.8,68,0.00,,OVC031,0.00,VWS V14.01,2013-02-18 19:09:00,
2013-02-18 13:15:00,71.2,59.3,29.38,West,270,7.4,8.7,66,0.00,,OVC031,0.00,VWS V14.01,2013-02-18 19:15:00,
2013-02-18 13:20:00,71.1,59.1,29.38,WNW,292,10.7,14.8,66,0.00,,OVC031,0.00,VWS V14.01,2013-02-18 19:20:00,
2013-02-18 13:25:00,71.6,59.7,29.35,WSW,248,8.7,8.7,66,0.00,,OVC031,0.00,VWS V14.01,2013-02-18 19:25:00,
2013-02-18 13:31:00,71.6,59.7,29.35,WNW,292,5.6,8.7,66,0.00,,OVC031,0.00,VWS V14.01,2013-02-18 19:31:00,
2013-02-18 13:36:00,71.8,59.4,29.35,WNW,292,12.3,12.3,65,0.00,,OVC031,0.00,VWS V14.01,2013-02-18 19:36:00,
2013-02-18 13:41:00,72.3,59.9,29.35,WSW,248,4.3,5.4,65,0.00,,OVC031,0.00,VWS V14.01,2013-02-18 19:41:00,
2013-02-18 13:46:00,71.2,58.9,29.35,WNW,292,5.6,8.7,65,0.00,,OVC031,0.00,VWS V14.01,2013-02-18 19:46:00,
2013-02-18 13:52:00,71.2,59.3,29.35,WSW,248,10.5,10.5,66,0.00,,OVC031,0.00,VWS V14.01,2013-02-18 19:52:00,
2013-02-18 13:57:00,70.7,59.2,29.35,WNW,292,4.3,4.3,67,0.00,,OVC031,0.00,VWS V14.01,2013-02-18 19:57:00,
2013-02-18 14:02:00,70.2,59.1,29.35,West,270,5.8,14.5,68,0.00,,OVC031,0.00,VWS V14.01,2013-02-18 20:02:00,
2013-02-18 14:08:00,69.8,59.2,29.35,West,270,4.0,5.8,69,0.00,,OVC031,0.00,VWS V14.01,2013-02-18 20:08:00,
2013-02-18 14:13:00,70.2,59.9,29.35,NNW,338,4.9,6.3,70,0.00,,OVC031,0.00,VWS V14.01,2013-02-18 20:13:00,
2013-02-18 14:19:00,70.0,59.3,29.35,NNW,338,3.4,7.2,69,0.00,,OVC031,0.00,VWS V14.01,2013-02-18 20:19:00,
2013-02-18 14:24:00,70.0,59.3,29.38,NNW,338,4.9,4.9,69,0.00,,OVC031,0.00,VWS V14.01,2013-02-18 20:24:00,
2013-02-18 14:30:00,69.8,59.6,29.38,WSW,248,2.9,4.0,70,0.00,,OVC031,0.00,VWS V14.01,2013-02-18 20:30:00,
2013-02-18 14:35:00,69.6,59.4,29.38,WNW,292,4.3,6.3,70,0.00,,OVC031,0.00,VWS V14.01,2013-02-18 20:35:00,
2013-02-18 14:40:00,70.2,59.9,29.38,WNW,292,4.3,6.0,70,0.00,,OVC031,0.00,VWS V14.01,2013-02-18 20:40:00,
2013-02-18 14:46:00,71.8,61.1,29.38,NNW,338,1.6,8.5,69,0.00,,OVC031,0.00,VWS V14.01,2013-02-18 20:46:00,
2013-02-18 14:51:00,71.8,60.7,29.35,WNW,292,5.6,5.6,68,0.00,,OVC031,0.00,VWS V14.01,2013-02-18 20:51:00,
2013-02-18 14:56:00,71.8,60.2,29.35,WNW,292,5.6,5.8,67,0.00,,OVC031,0.00,VWS V14.01,2013-02-18 20:56:00,
2013-02-18 15:01:00,72.0,60.4,29.35,West,270,8.7,8.7,67,0.00,,OVC031,0.00,VWS V14.01,2013-02-18 21:01:00,
2013-02-18 15:06:00,72.1,60.6,29.35,WNW,292,7.4,7.4,67,0.00,,OVC031,0.00,VWS V14.01,2013-02-18 21:06:00,
2013-02-18 15:11:00,72.1,60.2,29.35,NW,315,6.5,6.5,66,0.00,,OVC031,0.00,VWS V14.01,2013-02-18 21:11:00,
2013-02-18 15:16:00,72.7,61.1,29.35,SSW,202,4.9,4.9,67,0.00,,OVC031,0.00,VWS V14.01,2013-02-18 21:16:00,
2013-02-18 15:22:00,73.0,60.6,29.35,NNW,338,5.8,6.7,65,0.00,,OVC031,0.00,VWS V14.01,2013-02-18 21:22:00,
2013-02-18 15:28:00,73.2,61.2,29.35,NE,45,3.1,5.6,66,0.00,,OVC031,0.00,VWS V14.01,2013-02-18 21:28:00,
2013-02-18 15:33:00,73.6,61.1,29.35,WNW,292,3.1,3.1,65,0.00,,OVC031,0.00,VWS V14.01,2013-02-18 21:33:00,
2013-02-18 15:38:00,73.4,60.0,29.32,WNW,292,10.1,10.1,63,0.00,,OVC031,0.00,VWS V14.01,2013-02-18 21:38:00,
2013-02-18 15:44:00,73.2,60.3,29.32,WSW,248,7.4,9.6,64,0.00,,OVC031,0.00,VWS V14.01,2013-02-18 21:44:00,
2013-02-18 15:49:00,73.0,60.6,29.32,NNW,338,3.8,4.0,65,0.00,,OVC031,0.00,VWS V14.01,2013-02-18 21:49:00,
2013-02-18 15:54:00,73.2,60.8,29.32,WNW,292,3.6,8.7,65,0.00,,OVC031,0.00,VWS V14.01,2013-02-18 21:54:00,
2013-02-18 15:59:00,72.7,60.2,29.32,WNW,292,5.4,5.4,65,0.00,,OVC031,0.00,VWS V14.01,2013-02-18 21:59:00,
2013-02-18 16:05:00,71.8,60.2,29.32,WSW,248,2.7,4.9,67,0.00,,BKN070,0.00,VWS V14.01,2013-02-18 22:05:00,
2013-02-18 16:10:00,71.2,60.2,29.32,WNW,292,4.5,8.1,68,0.00,,BKN070,0.00,VWS V14.01,2013-02-18 22:10:00,
2013-02-18 16:15:00,71.6,60.5,29.32,West,270,3.4,5.6,68,0.00,,BKN070,0.00,VWS V14.01,2013-02-18 22:15:00,
2013-02-18 16:20:00,71.8,59.8,29.32,WNW,292,5.8,5.8,66,0.00,,BKN070,0.00,VWS V14.01,2013-02-18 22:20:00,
2013-02-18 16:26:00,71.8,59.8,29.32,WSW,248,2.5,5.6,66,0.00,,BKN070,0.00,VWS V14.01,2013-02-18 22:26:00,
2013-02-18 16:31:00,72.1,59.7,29.32,West,270,5.8,6.7,65,0.00,,BKN070,0.00,VWS V14.01,2013-02-18 22:31:00,
2013-02-18 16:36:00,72.3,59.5,29.32,WSW,248,6.3,8.7,64,0.00,,BKN070,0.00,VWS V14.01,2013-02-18 22:36:00,
2013-02-18 16:41:00,72.1,59.7,29.32,WNW,292,3.8,3.8,65,0.00,,BKN070,0.00,VWS V14.01,2013-02-18 22:41:00,
2013-02-18 16:47:00,72.0,59.1,29.32,West,270,4.9,8.5,64,0.00,,BKN070,0.00,VWS V14.01,2013-02-18 22:47:00,
2013-02-18 16:53:00,72.1,59.3,29.29,WSW,248,4.0,5.6,64,0.00,,BKN070,0.00,VWS V14.01,2013-02-18 22:53:00,
2013-02-18 16:58:00,71.8,59.4,29.29,West,270,5.8,7.4,65,0.00,,BKN070,0.00,VWS V14.01,2013-02-18 22:58:00,
2013-02-18 17:03:00,71.6,59.7,29.29,WNW,292,6.3,6.3,66,0.00,,BKN070,0.00,VWS V14.01,2013-02-18 23:03:00,
2013-02-18 17:08:00,71.6,59.7,29.29,West,270,6.0,9.8,66,0.00,,BKN070,0.00,VWS V14.01,2013-02-18 23:08:00,
2013-02-18 17:14:00,71.4,59.9,29.29,WNW,292,6.0,6.0,67,0.00,,BKN070,0.00,VWS V14.01,2013-02-18 23:14:00,
2013-02-18 17:19:00,71.1,59.6,29.29,WNW,292,5.4,5.4,67,0.00,,BKN070,0.00,VWS V14.01,2013-02-18 23:19:00,
2013-02-18 17:24:00,70.9,59.8,29.32,NNW,338,2.9,3.8,68,0.00,,BKN070,0.00,VWS V14.01,2013-02-18 23:24:00,
2013-02-18 17:29:00,70.7,60.0,29.32,WNW,292,5.8,6.5,69,0.00,,BKN070,0.00,VWS V14.01,2013-02-18 23:29:00,
2013-02-18 17:34:00,70.7,60.0,29.32,NNE,22,3.1,3.1,69,0.00,,BKN070,0.00,VWS V14.01,2013-02-18 23:34:00,
2013-02-18 17:39:00,70.7,60.0,29.35,NNW,338,2.7,4.7,69,0.00,,BKN070,0.00,VWS V14.01,2013-02-18 23:39:00,
2013-02-18 17:45:00,70.3,52.4,29.35,WSW,248,3.1,4.3,53,0.00,,BKN070,0.00,VWS V14.01,2013-02-18 23:45:00,
2013-02-18 17:51:00,70.0,51.6,29.35,North,0,2.5,3.6,52,0.00,,BKN070,0.00,VWS V14.01,2013-02-18 23:51:00,
2013-02-18 17:56:00,69.4,51.1,29.35,WSW,248,3.8,3.8,52,0.00,,BKN070,0.00,VWS V14.01,2013-02-18 23:56:00,
2013-02-18 18:01:00,69.1,50.7,29.35,WNW,292,3.1,6.0,52,0.00,,BKN070,0.00,VWS V14.01,2013-02-19 00:01:00,
2013-02-18 18:07:00,68.9,52.6,29.38,WNW,292,3.4,3.6,56,0.00,,BKN070,0.00,VWS V14.01,2013-02-19 00:07:00,
2013-02-18 18:12:00,68.7,56.9,29.38,West,270,0.0,2.5,66,0.00,,BKN070,0.00,VWS V14.01,2013-02-19 00:12:00,
2013-02-18 18:17:00,68.7,58.2,29.38,WSW,248,3.1,3.4,69,0.00,,BKN070,0.00,VWS V14.01,2013-02-19 00:17:00,
2013-02-18 18:22:00,68.4,57.4,29.38,WNW,292,2.2,2.7,68,0.00,,BKN070,0.00,VWS V14.01,2013-02-19 00:22:00,
2013-02-18 18:27:00,68.2,52.9,29.38,NE,45,10.1,10.1,58,0.00,,BKN070,0.00,VWS V14.01,2013-02-19 00:27:00,
2013-02-18 18:32:00,68.0,47.6,29.38,ENE,68,5.8,8.5,48,0.00,,BKN070,0.00,VWS V14.01,2013-02-19 00:32:00,
2013-02-18 18:37:00,67.8,44.5,29.41,ENE,68,7.4,8.5,43,0.00,,BKN070,0.00,VWS V14.01,2013-02-19 00:37:00,
2013-02-18 18:42:00,67.3,41.5,29.41,NE,45,11.0,11.0,39,0.00,,BKN070,0.00,VWS V14.01,2013-02-19 00:42:00,
2013-02-18 18:47:00,66.9,40.5,29.41,ENE,68,5.6,7.4,38,0.00,,BKN070,0.00,VWS V14.01,2013-02-19 00:47:00,
2013-02-18 18:52:00,66.6,39.5,29.44,ENE,68,5.8,7.8,37,0.00,,BKN070,0.00,VWS V14.01,2013-02-19 00:52:00,
2013-02-18 18:57:00,66.0,39.0,29.44,ENE,68,4.5,6.0,37,0.00,,BKN070,0.00,VWS V14.01,2013-02-19 00:57:00,
2013-02-18 19:02:00,65.5,37.8,29.44,NE,45,6.3,12.1,36,0.00,,BKN070,0.00,VWS V14.01,2013-02-19 01:02:00,
2013-02-18 19:07:00,65.1,37.5,29.47,ENE,68,6.0,7.2,36,0.00,,BKN070,0.00,VWS V14.01,2013-02-19 01:07:00,
2013-02-18 19:12:00,64.4,37.6,29.47,East,90,4.9,6.0,37,0.00,,BKN070,0.00,VWS V14.01,2013-02-19 01:12:00,
2013-02-18 19:17:00,64.0,37.3,29.47,ENE,68,6.9,7.8,37,0.00,,BKN070,0.00,VWS V14.01,2013-02-19 01:17:00,
2013-02-18 19:22:00,63.5,36.8,29.47,East,90,5.4,8.1,37,0.00,,BKN070,0.00,VWS V14.01,2013-02-19 01:22:00,
2013-02-18 19:27:00,63.3,35.9,29.47,ENE,68,9.4,9.4,36,0.00,,BKN070,0.00,VWS V14.01,2013-02-19 01:27:00,
2013-02-18 19:33:00,63.1,35.8,29.47,ENE,68,5.8,5.8,36,0.00,,BKN070,0.00,VWS V14.01,2013-02-19 01:33:00,
2013-02-18 19:39:00,62.6,35.3,29.47,ESE,112,6.0,8.5,36,0.00,,BKN070,0.00,VWS V14.01,2013-02-19 01:39:00,
2013-02-18 19:44:00,62.2,35.0,29.47,NE,45,5.8,6.0,36,0.00,,BKN070,0.00,VWS V14.01,2013-02-19 01:44:00,
2013-02-18 19:50:00,62.1,34.8,29.47,ENE,68,3.6,7.8,36,0.00,,BKN070,0.00,VWS V14.01,2013-02-19 01:50:00,
2013-02-18 19:55:00,61.9,34.7,29.50,ENE,68,6.3,6.3,36,0.00,,BKN070,0.00,VWS V14.01,2013-02-19 01:55:00,
2013-02-18 20:00:00,61.5,34.3,29.50,ENE,68,8.5,8.5,36,0.00,,CLR,0.00,VWS V14.01,2013-02-19 02:00:00,
2013-02-18 20:06:00,61.5,34.3,29.50,NNE,22,9.8,10.1,36,0.00,,CLR,0.00,VWS V14.01,2013-02-19 02:06:00,
2013-02-18 20:11:00,61.3,34.2,29.50,ENE,68,10.7,12.1,36,0.00,,CLR,0.00,VWS V14.01,2013-02-19 02:11:00,
2013-02-18 20:16:00,61.2,34.0,29.50,East,90,7.8,8.1,36,0.00,,CLR,0.00,VWS V14.01,2013-02-19 02:16:00,
2013-02-18 20:21:00,61.0,33.9,29.50,East,90,8.1,8.1,36,0.00,,CLR,0.00,VWS V14.01,2013-02-19 02:21:00,
2013-02-18 20:26:00,60.6,34.2,29.53,ENE,68,5.8,7.8,37,0.00,,CLR,0.00,VWS V14.01,2013-02-19 02:26:00,
2013-02-18 20:32:00,60.4,34.1,29.53,East,90,4.7,6.3,37,0.00,,CLR,0.00,VWS V14.01,2013-02-19 02:32:00,
2013-02-18 20:37:00,60.3,33.9,29.53,ENE,68,6.3,6.3,37,0.00,,CLR,0.00,VWS V14.01,2013-02-19 02:37:00,
2013-02-18 20:42:00,59.9,33.6,29.53,NNE,22,6.0,6.5,37,0.00,,CLR,0.00,VWS V14.01,2013-02-19 02:42:00,
2013-02-18 20:48:00,59.7,33.4,29.53,ENE,68,4.9,7.2,37,0.00,,CLR,0.00,VWS V14.01,2013-02-19 02:48:00,
2013-02-18 20:53:00,59.5,33.9,29.56,NNE,22,4.3,4.9,38,0.00,,CLR,0.00,VWS V14.01,2013-02-19 02:53:00,
2013-02-18 20:58:00,59.4,33.8,29.56,East,90,6.0,10.7,38,0.00,,CLR,0.00,VWS V14.01,2013-02-19 02:58:00,
2013-02-18 21:03:00,59.4,33.8,29.56,East,90,6.5,6.5,38,0.00,,CLR,0.00,VWS V14.01,2013-02-19 03:03:00,
2013-02-18 21:08:00,59.2,33.6,29.56,East,90,6.3,14.3,38,0.00,,CLR,0.00,VWS V14.01,2013-02-19 03:08:00,
2013-02-18 21:13:00,59.0,33.5,29.56,ENE,68,7.4,10.3,38,0.00,,CLR,0.00,VWS V14.01,2013-02-19 03:13:00,
2013-02-18 21:18:00,58.8,33.9,29.56,ESE,112,7.2,7.2,39,0.00,,CLR,0.00,VWS V14.01,2013-02-19 03:18:00,
2013-02-18 21:24:00,58.6,33.8,29.56,ENE,68,4.9,8.7,39,0.00,,CLR,0.00,VWS V14.01,2013-02-19 03:24:00,
2013-02-18 21:29:00,58.5,33.6,29.56,ENE,68,4.9,7.2,39,0.00,,CLR,0.00,VWS V14.01,2013-02-19 03:29:00,
2013-02-18 21:35:00,58.3,33.5,29.56,ENE,68,8.1,10.7,39,0.00,,CLR,0.00,VWS V14.01,2013-02-19 03:35:00,
2013-02-18 21:41:00,58.3,33.5,29.59,East,90,8.7,8.7,39,0.00,,CLR,0.00,VWS V14.01,2013-02-19 03:41:00,
2013-02-18 21:46:00,58.3,33.5,29.59,East,90,10.5,10.5,39,0.00,,CLR,0.00,VWS V14.01,2013-02-19 03:46:00,
2013-02-18 21:52:00,57.9,33.1,29.59,ENE,68,11.2,11.2,39,0.00,,CLR,0.00,VWS V14.01,2013-02-19 03:52:00,
2013-02-18 21:57:00,57.9,33.1,29.59,ENE,68,8.1,8.1,39,0.00,,CLR,0.00,VWS V14.01,2013-02-19 03:57:00,
2013-02-18 22:03:00,57.6,32.8,29.59,ESE,112,10.7,10.7,39,0.00,,CLR,0.00,VWS V14.01,2013-02-19 04:03:00,
2013-02-18 22:08:00,57.6,32.8,29.59,NE,45,5.4,7.8,39,0.00,,CLR,0.00,VWS V14.01,2013-02-19 04:08:00,
2013-02-18 22:13:00,57.4,32.7,29.59,East,90,6.3,6.3,39,0.00,,CLR,0.00,VWS V14.01,2013-02-19 04:13:00,
2013-02-18 22:18:00,57.2,32.5,29.59,ESE,112,6.3,6.3,39,0.00,,CLR,0.00,VWS V14.01,2013-02-19 04:18:00,
2013-02-18 22:23:00,56.8,32.2,29.62,East,90,4.9,8.5,39,0.00,,CLR,0.00,VWS V14.01,2013-02-19 04:23:00,
2013-02-18 22:29:00,56.8,32.2,29.62,ENE,68,9.6,9.6,39,0.00,,CLR,0.00,VWS V14.01,2013-02-19 04:29:00,
2013-02-18 22:35:00,56.7,32.0,29.62,ESE,112,6.3,8.1,39,0.00,,CLR,0.00,VWS V14.01,2013-02-19 04:35:00,
2013-02-18 22:40:00,56.3,31.7,29.59,ENE,68,7.8,8.7,39,0.00,,CLR,0.00,VWS V14.01,2013-02-19 04:40:00,
2013-02-18 22:45:00,56.3,31.7,29.59,ESE,112,7.6,8.5,39,0.00,,CLR,0.00,VWS V14.01,2013-02-19 04:45:00,
2013-02-18 22:50:00,56.3,31.7,29.59,ENE,68,4.9,6.5,39,0.00,,CLR,0.00,VWS V14.01,2013-02-19 04:50:00,
2013-02-18 22:55:00,55.9,31.4,29.62,ENE,68,5.8,5.8,39,0.00,,CLR,0.00,VWS V14.01,2013-02-19 04:55:00,
2013-02-18 23:00:00,55.8,31.8,29.62,East,90,4.9,7.8,40,0.00,,CLR,0.00,VWS V14.01,2013-02-19 05:00:00,
2013-02-18 23:05:00,55.4,31.5,29.62,ENE,68,8.1,8.1,40,0.00,,CLR,0.00,VWS V14.01,2013-02-19 05:05:00,
2013-02-18 23:06:00,55.4,31.5,29.65,ESE,112,4.0,8.1,40,0.00,,CLR,0.00,VWS V14.01,2013-02-19 05:06:00,
2013-02-18 23:10:00,55.2,31.3,29.65,ESE,112,6.3,6.3,40,0.00,,CLR,0.00,VWS V14.01,2013-02-19 05:10:00,
2013-02-18 23:15:00,55.0,31.2,29.65,ESE,112,5.8,8.1,40,0.00,,CLR,0.00,VWS V14.01,2013-02-19 05:15:00,
2013-02-18 23:20:00,54.9,31.6,29.65,ENE,68,6.0,6.0,41,0.00,,CLR,0.00,VWS V14.01,2013-02-19 05:20:00,
2013-02-18 23:25:00,54.7,31.5,29.68,East,90,7.4,7.4,41,0.00,,CLR,0.00,VWS V14.01,2013-02-19 05:25:00,
2013-02-18 23:30:00,54.5,31.3,29.68,ESE,112,5.8,6.5,41,0.00,,CLR,0.00,VWS V14.01,2013-02-19 05:30:00,
2013-02-18 23:35:00,54.3,31.1,29.68,East,90,3.4,3.4,41,0.00,,CLR,0.00,VWS V14.01,2013-02-19 05:35:00,
2013-02-18 23:41:00,54.0,30.8,29.68,ENE,68,4.3,5.4,41,0.00,,CLR,0.00,VWS V14.01,2013-02-19 05:41:00,
2013-02-18 23:46:00,53.8,30.6,29.68,ENE,68,4.0,4.9,41,0.00,,CLR,0.00,VWS V14.01,2013-02-19 05:46:00,
2013-02-18 23:51:00,53.4,30.9,29.68,ENE,68,3.1,4.3,42,0.00,,CLR,0.00,VWS V14.01,2013-02-19 05:51:00,
2013-02-18 23:56:00,53.4,30.9,29.68,ESE,112,4.0,4.0,42,0.00,,CLR,0.00,VWS V14.01,2013-02-19 05:56:00,